Theta_e
341 344 345 341 344 343 343 343 345 349 346 344 349 348 346 340 343 341 345 344 342 342 341 338 341 344 348 348 347 348 350 348 346 347 344 346 346 345 343 345 346 345 345
343 341 341 343 343 343 344 345 348 346 348 347 347 348 346 343 342 342 347 346 345 345 342 338 339 342 344 349 348 345 348 348 347 345 346 345 347 345 343 344 345 344 344
346 344 344 344 344 343 344 347 344 349 348 343 344 349 343 340 342 344 341 347 347 346 344 339 337 341 342 344 345 345 344 345 348 345 342 342 344 344 344 345 345 344 345
345 345 345 345 343 344 345 348 349 344 346 342 344 346 350 346 346 344 345 347 345 345 348 343 337 338 340 340 342 343 345 343 344 344 343 340 340 341 342 344 343 343 344
346 346 345 346 346 345 347 347 346 349 347 342 344 343 344 347 344 347 345 345 346 346 346 347 344 340 338 338 339 340 341 344 343 341 341 340 341 340 340 343 343 343 341
350 348 346 347 347 347 347 346 348 342 343 346 349 348 347 345 348 343 345 347 342 343 347 346 347 346 341 339 340 340 340 340 340 340 340 340 341 342 341 342 344 342 342
348 348 347 348 347 347 346 346 349 348 347 346 347 347 347 346 345 347 343 347 347 346 342 346 347 347 346 345 341 341 340 339 340 341 342 343 342 341 342 342 345 342 343
351 350 349 347 348 348 347 349 349 348 348 343 344 346 352 344 344 344 343 339 343 346 347 346 348 347 350 351 346 342 342 342 342 342 343 343 344 344 343 343 343 344 341
351 351 352 352 350 349 348 348 348 347 347 342 343 347 349 350 344 342 337 335 341 340 346 346 345 348 346 350 349 348 346 346 346 343 342 342 343 344 345 343 343 343 341
354 352 353 352 352 351 348 347 347 347 346 341 345 345 347 347 347 348 340 340 339 340 339 347 347 349 348 349 349 350 350 351 349 347 345 344 344 344 345 344 342 342 341
355 356 355 354 353 352 352 346 348 344 345 347 343 345 346 348 344 344 345 343 344 338 342 336 339 344 347 347 347 347 347 347 349 349 348 345 344 344 344 344 343 342 340
355 355 356 355 352 353 351 351 349 347 347 347 346 347 349 346 343 343 345 344 345 344 345 345 343 346 347 348 347 347 348 348 348 347 347 348 348 346 344 344 345 343 341
353 355 354 356 354 354 352 353 351 351 350 350 350 350 351 349 348 349 346 347 346 346 346 344 345 346 346 347 348 346 346 345 345 345 347 347 346 346 345 345 345 345 344
354 354 354 353 354 353 354 353 352 353 352 352 352 351 351 351 350 348 347 350 353 351 350 350 348 345 339 344 346 349 348 347 346 346 345 346 348 348 346 346 346 346 345
355 353 352 352 351 353 353 353 352 350 351 349 353 351 348 351 350 349 348 347 347 352 350 346 347 346 339 337 345 345 351 349 349 349 346 346 345 348 345 346 346 347 347
353 352 350 350 349 348 353 353 351 348 349 347 347 348 346 345 344 341 340 339 342 345 347 343 340 341 343 345 343 338 343 351 349 349 349 347 347 346 345 346 346 347 347
343 344 349 348 347 349 350 348 350 348 349 346 345 343 344 344 341 340 339 335 338 340 342 344 345 343 343 343 344 348 349 349 353 352 349 348 349 348 345 345 345 346 348
349 347 348 341 338 342 342 344 343 346 344 343 342 339 338 337 336 334 334 336 335 333 337 337 336 340 344 344 343 343 344 346 350 352 351 349 349 348 347 346 345 346 347
342 345 344 341 340 340 342 342 339 340 341 338 338 338 337 337 337 337 337 337 337 337 334 335 335 335 337 335 337 339 341 344 344 347 350 350 348 349 348 346 346 345 346
348 348 344 342 340 341 335 334 334 333 339 340 340 340 339 339 339 339 340 339 337 336 336 334 333 331 330 333 337 339 343 345 343 345 347 351 350 347 347 347 347 346 346
343 342 339 338 338 336 338 338 337 332 331 338 339 341 340 340 340 339 338 337 336 335 336 335 333 332 332 332 336 338 340 339 347 346 344 344 348 351 348 347 347 347 346
341 342 341 343 342 340 338 337 337 337 336 336 336 337 337 338 338 337 335 337 335 334 334 334 333 332 332 332 333 338 341 343 339 337 345 345 344 346 352 350 348 346 347
336 336 336 336 335 334 332 325 325 322 320 320 321 323 325 324 326 327 327 329 330 330 330 331 332 333 333 334 336 336 335 339 342 343 342 343 344 345 343 348 350 350 350
327 326 326 324 324 324 322 321 318 317 318 318 318 319 320 320 322 326 327 326 327 329 329 329 330 331 331 331 333 334 337 339 339 338 338 339 338 341 344 344 344 347 350
323 322 321 321 321 322 320 320 318 317 316 316 317 318 318 317 317 317 319 322 324 325 325 326 326 326 327 327 329 331 332 333 334 339 339 339 337 337 341 340 345 348 348
321 319 320 319 319 319 321 316 315 314 314 313 312 312 313 315 314 313 311 310 314 320 321 321 320 320 322 321 323 326 333 335 334 335 337 340 337 337 342 344 342 341 348
Wind_Speed
11 9 9 10 11 11 10 14 8 3 12 9 13 18 14 15 16 13 23 18 17 14 14 16 19 21 17 16 15 14 13 12 12 12 11 11 11 10 10 10 9 8 9
11 10 12 11 10 11 16 11 7 9 8 12 18 15 17 15 14 13 3 13 14 12 11 17 20 21 20 19 19 18 16 16 14 13 12 12 14 13 11 11 11 11 11
12 11 12 13 14 17 15 9 6 7 13 14 19 14 15 13 16 12 16 15 16 13 16 15 20 21 20 20 21 21 20 18 18 17 15 14 15 14 14 13 13 13 12
18 14 15 16 18 18 17 16 9 10 11 10 11 14 18 21 12 14 12 15 14 16 17 19 18 21 23 23 23 24 22 22 20 19 17 16 16 15 15 16 15 14 13
17 16 14 17 16 19 18 11 10 11 12 14 16 19 17 15 21 13 16 18 18 15 18 22 21 18 23 24 24 25 25 24 22 20 19 18 17 17 16 17 16 16 15
17 17 18 18 18 18 11 11 13 14 15 14 14 15 16 14 8 14 24 18 20 21 22 23 23 20 22 24 21 22 23 22 22 21 21 20 19 17 17 17 18 17 17
17 20 19 18 15 17 17 15 14 12 11 9 9 15 18 16 15 23 14 10 20 22 19 20 24 23 24 23 25 23 21 21 22 22 22 21 21 19 19 18 19 19 18
16 17 17 17 17 17 16 14 13 9 9 9 4 12 4 3 6 5 12 24 27 19 28 19 19 20 21 22 24 25 25 22 23 23 22 22 21 20 21 20 20 20 19
15 17 16 15 14 14 15 15 12 12 12 7 8 8 2 2 1 3 13 21 24 30 31 16 21 20 32 17 13 20 25 23 23 25 25 24 23 22 22 21 20 21 20
16 16 16 15 13 11 12 14 10 13 12 8 10 14 17 12 1 2 7 11 19 29 30 14 18 15 18 16 20 20 19 25 23 21 23 23 23 21 21 22 21 21 22
13 14 15 15 14 11 11 11 13 17 17 16 16 13 8 4 2 2 2 3 4 14 23 27 24 22 21 25 23 24 27 27 24 21 22 23 22 23 22 21 22 21 23
12 15 15 14 13 12 9 11 10 11 14 15 17 14 10 4 4 5 3 6 6 7 11 20 29 33 23 24 20 23 24 27 28 25 25 24 23 24 25 22 21 21 21
12 16 14 15 15 14 11 9 10 9 11 12 12 13 11 12 11 7 9 6 5 6 10 14 18 29 27 30 13 16 31 20 18 21 25 26 26 26 26 26 23 23 21
14 12 13 13 14 14 13 10 8 9 10 8 9 9 10 12 15 16 13 9 3 6 10 11 4 15 26 31 15 9 9 13 16 20 22 25 28 27 28 28 28 25 23
11 10 12 9 12 12 15 12 10 10 8 8 9 8 8 10 11 11 9 10 10 2 3 4 1 8 4 18 16 26 13 9 11 17 22 25 25 26 28 29 28 29 27
8 10 12 8 12 16 19 14 10 11 9 6 8 6 3 8 12 14 16 17 14 11 3 12 12 7 9 6 15 18 21 20 17 19 18 21 21 26 27 27 27 29 30
5 11 9 5 3 21 6 4 3 4 5 4 3 4 3 5 8 11 14 17 20 18 10 15 14 15 13 13 18 20 24 27 23 26 26 24 25 24 27 29 29 29 30
4 4 8 7 10 17 16 8 7 5 7 1 2 3 3 7 11 11 12 14 19 21 17 15 19 20 19 18 19 18 18 22 25 23 16 22 25 25 27 29 29 30 30
9 10 5 6 6 13 16 6 6 8 10 8 6 6 6 6 8 11 12 14 16 14 20 20 21 22 23 23 20 21 22 22 22 30 22 21 21 29 24 27 30 31 32
4 2 4 2 3 6 6 4 4 7 11 13 13 9 10 12 15 16 14 12 15 19 18 20 19 20 22 24 23 21 21 20 21 19 24 21 18 29 28 30 28 31 33
6 4 4 4 3 4 3 7 11 17 16 18 21 13 16 17 18 22 21 22 22 20 17 17 18 19 21 21 20 23 16 14 13 17 17 23 28 20 30 32 31 31 34
8 7 8 8 7 3 2 5 6 8 10 12 15 16 17 18 20 24 27 25 19 20 19 16 19 20 22 25 23 21 22 18 5 14 18 18 21 26 20 24 35 34 36
7 7 7 7 8 9 9 12 15 15 16 16 17 18 18 20 24 26 26 24 22 22 23 25 23 21 23 25 28 24 23 21 19 18 19 19 17 25 27 30 28 23 33
6 7 8 8 9 8 11 15 17 15 15 16 18 21 21 21 22 23 23 21 20 20 20 23 25 24 23 24 27 28 28 25 27 27 25 22 26 27 23 26 31 35 26
7 7 8 8 9 9 11 12 12 12 14 16 17 18 20 21 19 22 23 19 21 21 22 23 25 25 24 25 25 29 24 22 21 24 23 28 28 28 27 27 26 26 27
7 7 9 10 11 13 10 7 9 8 11 13 18 21 21 22 15 13 22 22 21 20 21 24 31 37 37 34 32 30 28 24 23 21 27 26 20 18 14 22 24 31 28
Wind_Direction
272 275 271 264 266 297 283 301 272 279 269 256 278 265 257 255 240 237 197 204 221 222 224 224 224 224 222 228 228 235 235 237 236 237 241 242 250 250 247 255 258 260 258
250 275 255 276 276 268 280 254 264 230 255 259 270 267 277 254 260 250 212 218 221 236 237 229 227 222 228 228 231 234 234 240 240 244 244 245 243 249 250 252 261 261 258
245 250 260 276 273 264 269 254 230 246 259 274 265 274 265 261 267 250 272 248 223 252 241 234 227 222 226 231 233 233 237 242 239 241 243 246 246 247 249 250 251 254 255
243 259 256 265 261 255 267 233 233 257 256 274 262 268 284 252 276 258 249 257 256 258 246 243 233 229 231 233 236 237 241 243 237 238 240 242 247 249 248 247 248 252 250
254 241 248 261 254 255 252 230 240 243 252 265 267 270 277 275 273 281 267 250 245 261 248 248 232 233 234 235 241 240 241 236 235 236 238 240 243 249 250 249 247 248 248
236 237 244 251 253 243 230 240 237 237 250 263 261 267 258 275 278 280 266 285 253 249 253 248 233 228 232 229 231 233 233 231 230 233 236 240 241 245 250 249 246 247 249
232 231 242 245 240 237 245 244 238 243 249 271 283 277 269 268 256 248 284 305 269 243 254 268 225 225 232 231 229 228 228 229 228 232 236 237 240 242 246 248 245 244 246
228 234 245 247 248 246 238 232 229 238 256 268 272 301 262 283 197 227 309 318 294 303 264 237 235 229 232 234 230 229 232 234 233 232 235 238 240 241 244 248 247 244 247
239 234 241 245 249 257 260 249 227 215 230 261 258 242 14 308 96 47 311 288 307 289 326 250 239 227 249 238 244 241 236 236 236 237 238 241 242 244 243 243 245 243 246
232 238 244 246 251 245 245 238 220 207 210 239 267 262 242 245 320 93 274 240 239 255 303 313 318 260 228 237 236 241 248 238 236 238 236 240 243 245 245 243 242 242 243
230 237 241 244 239 240 241 225 220 230 228 231 228 255 266 257 235 140 257 243 253 264 299 277 291 284 287 242 238 240 240 242 234 235 236 235 237 240 243 242 243 244 241
234 234 234 238 236 232 231 227 220 220 224 237 236 237 233 219 214 195 205 260 252 282 295 294 292 307 279 256 238 253 236 241 244 245 244 241 240 237 237 240 241 245 246
230 232 237 223 225 229 230 225 210 204 206 215 226 231 241 238 248 261 231 243 227 275 282 274 301 292 311 345 303 245 247 241 241 242 244 244 243 242 238 234 240 243 245
244 247 231 241 227 220 217 223 223 214 189 200 219 233 232 241 245 243 224 220 247 213 273 298 185 348 347 296 330 346 263 230 245 257 254 248 242 241 239 234 234 237 241
256 268 256 243 255 232 219 214 214 197 196 198 221 217 250 267 277 264 254 266 228 268 286 323 323 298 285 279 312 304 314 269 274 273 265 252 245 241 237 234 238 238 237
269 261 283 254 268 238 224 192 202 185 180 192 100 130 309 335 325 333 335 338 324 275 279 312 314 327 320 302 252 270 283 277 268 267 259 249 246 240 239 237 238 238 239
279 289 243 181 262 306 257 250 164 167 215 193 301 336 334 326 319 313 321 322 321 341 341 320 301 300 294 275 270 274 277 273 274 267 256 246 242 239 235 237 242 241 241
9 272 223 242 258 282 295 285 276 287 343 314 250 294 297 294 300 310 315 321 327 326 340 333 323 323 297 279 261 272 282 273 268 273 281 253 250 239 240 240 238 239 241
269 268 305 240 219 250 275 287 329 308 312 305 297 282 265 276 279 282 285 294 293 304 313 308 312 310 298 291 281 276 272 278 280 269 278 272 256 240 243 242 242 242 242
339 339 319 300 226 200 251 272 303 298 305 299 290 279 286 279 278 282 280 276 289 297 296 297 289 297 298 299 286 251 250 252 268 274 266 260 277 247 244 244 244 242 244
37 28 13 4 309 322 329 309 277 268 267 278 276 280 283 282 282 289 291 289 287 283 280 285 290 293 296 299 321 313 295 282 256 268 280 274 270 280 254 249 248 249 246
25 19 13 13 7 5 321 323 316 305 304 301 307 301 298 295 294 292 290 288 290 290 277 275 279 282 284 290 294 301 316 322 296 280 260 270 281 277 275 269 249 253 254
1 356 350 335 336 0 327 329 326 323 314 307 302 301 303 297 295 300 301 300 296 290 284 282 269 268 272 274 285 293 291 287 288 293 295 294 291 273 276 269 264 275 258
344 339 329 327 324 322 317 322 331 340 333 328 323 317 308 306 307 301 293 292 292 292 289 288 285 289 289 288 281 282 281 289 288 279 277 272 277 276 278 284 278 266 272
332 331 323 327 319 315 313 319 337 354 337 331 324 323 317 321 319 312 305 306 295 289 286 285 288 290 291 291 293 292 271 270 273 276 260 255 260 258 259 263 277 272 266
323 326 327 324 314 309 306 334 332 335 330 329 324 317 319 307 303 331 334 325 314 303 299 294 287 286 289 297 293 283 277 261 261 263 261 257 252 265 246 247 260 268 269